WMKM

Details ICAO WMKM (MKZ)
Name Malacca
Region Malaysia (Peninsular Malaysia)
Timezone Asia/Kuala_Lumpur (UTC+8.0)
Plans Departing 41
Arriving 71
Stats Elevation 35 ft / 11 m (AMSL)
Location 2.263360° 102.252000°
Runways 1
Magnetic Variation 0.073° E
Sunrise 2019-08-24 23:09:38 UTC / 2019-08-25 07:09:38 Local
Sunset 2019-08-25 11:19:57 UTC / 2019-08-25 19:19:57 Local
Advertisement - Login to hide

Runways

ID Width Length Bearing (true/mag) Surface Threshold Overrun Markings Lighting
03 121 ft / 37 m 4,523 ft / 1,379 m 29.93° / 29.86° ASPHALT 0 ft / 0 m 200 ft / 61 m APP EDGE THRESHOLD
21 121 ft / 37 m 4,523 ft / 1,379 m 209.93° / 209.86° ASPHALT 0 ft / 0 m 200 ft / 61 m APP EDGE THRESHOLD

Map

Weather


0- 5 10 15 20 25 30 35+ Temperature / °C

Clouds and Precipitation
Forecast for 2019-08-24 18:00 UTC. Updated 4 hours ago

Ground ~20,000 ft ~40,000 ft Winds

METAR

WMKM 241900Z VRB02KT 9999 FEW017CB SCT140 BKN270 27/25 Q1009

TAF

TAF WMKM 241700Z 2418/2518 VRB03KT 9999 FEW028 TEMPO 2501/2505 21010KT 4000 TSRA FEW010 FEW017CB SCT020

Frequencies

Ground 121.60 MHz
Tower 118.00 MHz
Warning: Do not use this data for real-world aviation or navigation. No guarantee of current accuracy is given.